TimePST,TemperatureF,Dew PointF,Humidity,Sea Level PressureIn,VisibilityMPH,Wind Direction,Wind SpeedMPH,Gust SpeedMPH,PrecipitationIn,Events,Conditions,WindDirDegrees,DateUTC
12:10 AM,26.6,24.8,93,30.23,10.0,Calm,Calm,-,N/A,,Clear,0,2013-12-28 08:10:00
12:30 AM,26.6,24.8,93,30.23,10.0,Calm,Calm,-,N/A,,Clear,0,2013-12-28 08:30:00
12:50 AM,26.6,24.8,93,30.23,10.0,Calm,Calm,-,N/A,,Clear,0,2013-12-28 08:50:00
1:10 AM,26.6,24.8,93,30.23,10.0,Calm,Calm,-,N/A,,Clear,0,2013-12-28 09:10:00
1:30 AM,26.6,24.8,93,30.24,10.0,West,3.5,-,N/A,,Clear,260,2013-12-28 09:30:00
1:50 AM,26.6,24.8,93,30.24,10.0,Calm,Calm,-,N/A,,Partly Cloudy,0,2013-12-28 09:50:00
2:10 AM,26.6,24.8,93,30.25,10.0,Calm,Calm,-,N/A,,Scattered Clouds,0,2013-12-28 10:10:00
2:30 AM,26.6,24.8,93,30.26,10.0,Calm,Calm,-,N/A,,Mostly Cloudy,0,2013-12-28 10:30:00
2:50 AM,26.6,24.8,93,30.26,10.0,Calm,Calm,-,N/A,,Overcast,0,2013-12-28 10:50:00
3:10 AM,26.6,24.8,93,30.26,10.0,Calm,Calm,-,N/A,,Overcast,0,2013-12-28 11:10:00
3:30 AM,26.6,26.6,100,30.25,10.0,Calm,Calm,-,N/A,,Overcast,0,2013-12-28 11:30:00
3:50 AM,28.4,26.6,93,30.25,9.0,West,3.5,-,N/A,,Overcast,280,2013-12-28 11:50:00
4:10 AM,28.4,26.6,93,30.25,10.0,West,3.5,-,N/A,,Overcast,280,2013-12-28 12:10:00
4:30 AM,28.4,26.6,93,30.25,6.0,West,3.5,-,N/A,,Overcast,270,2013-12-28 12:30:00
4:50 AM,28.4,26.6,93,30.26,7.0,WNW,3.5,-,N/A,,Overcast,300,2013-12-28 12:50:00
5:10 AM,28.4,26.6,93,30.26,10.0,Calm,Calm,-,N/A,,Overcast,0,2013-12-28 13:10:00
5:30 AM,28.4,26.6,93,30.26,10.0,West,3.5,-,N/A,,Overcast,260,2013-12-28 13:30:00
5:50 AM,28.4,26.6,93,30.26,10.0,West,3.5,-,N/A,,Overcast,270,2013-12-28 13:50:00
6:10 AM,28.4,26.6,93,30.27,8.0,West,3.5,-,N/A,,Overcast,270,2013-12-28 14:10:00
6:30 AM,28.4,26.6,93,30.27,0.8,NW,3.5,-,N/A,,Overcast,310,2013-12-28 14:30:00
6:50 AM,28.4,26.6,93,30.28,0.5,West,4.6,-,N/A,,Overcast,280,2013-12-28 14:50:00
7:10 AM,28.4,26.6,93,30.28,0.8,Calm,Calm,-,N/A,,Overcast,0,2013-12-28 15:10:00
7:30 AM,28.4,26.6,93,30.29,0.5,West,3.5,-,N/A,,Overcast,280,2013-12-28 15:30:00
7:50 AM,28.4,26.6,93,30.29,0.5,NW,3.5,-,N/A,,Overcast,310,2013-12-28 15:50:00
8:10 AM,28.4,26.6,93,30.30,0.5,Calm,Calm,-,N/A,,Overcast,0,2013-12-28 16:10:00
8:30 AM,28.4,28.4,100,30.30,0.2,Calm,Calm,-,N/A,,Overcast,0,2013-12-28 16:30:00
8:50 AM,28.4,28.4,100,30.31,0.2,Calm,Calm,-,N/A,,Overcast,0,2013-12-28 16:50:00
9:10 AM,28.4,28.4,100,30.31,0.2,Calm,Calm,-,N/A,,Overcast,0,2013-12-28 17:10:00
9:30 AM,28.4,28.4,100,30.31,0.2,Calm,Calm,-,N/A,,Overcast,0,2013-12-28 17:30:00
9:50 AM,30.2,30.2,100,30.31,0.2,Calm,Calm,-,N/A,,Overcast,0,2013-12-28 17:50:00
10:10 AM,32.0,30.2,93,30.31,0.2,Calm,Calm,-,N/A,,Overcast,0,2013-12-28 18:10:00
10:30 AM,32.0,32.0,100,30.30,0.2,Calm,Calm,-,N/A,,Overcast,0,2013-12-28 18:30:00
10:50 AM,32.0,32.0,100,30.30,0.2,Calm,Calm,-,N/A,,Overcast,0,2013-12-28 18:50:00
11:10 AM,32.0,32.0,100,30.29,0.2,Calm,Calm,-,N/A,,Overcast,0,2013-12-28 19:10:00
11:30 AM,35.6,33.8,93,30.28,8.0,ENE,3.5,-,N/A,,Scattered Clouds,70,2013-12-28 19:30:00
11:50 AM,35.6,33.8,93,30.27,10.0,Calm,Calm,-,N/A,,Clear,0,2013-12-28 19:50:00
12:10 PM,39.2,35.6,87,30.25,10.0,Calm,Calm,-,N/A,,Clear,0,2013-12-28 20:10:00
12:30 PM,41.0,35.6,81,30.25,10.0,ENE,3.5,-,N/A,,Clear,60,2013-12-28 20:30:00
12:50 PM,41.0,37.4,87,30.24,10.0,Calm,Calm,-,N/A,,Clear,0,2013-12-28 20:50:00
1:10 PM,46.4,35.6,66,30.23,10.0,Calm,Calm,-,N/A,,Clear,0,2013-12-28 21:10:00
1:30 PM,46.4,37.4,71,30.23,10.0,Calm,Calm,-,N/A,,Clear,0,2013-12-28 21:30:00
1:50 PM,46.4,37.4,71,30.22,10.0,Calm,Calm,-,N/A,,Clear,0,2013-12-28 21:50:00
2:10 PM,48.2,37.4,66,30.21,10.0,Calm,Calm,-,N/A,,Clear,0,2013-12-28 22:10:00
2:30 PM,48.2,37.4,66,30.22,10.0,Calm,Calm,-,N/A,,Clear,0,2013-12-28 22:30:00
2:50 PM,50.0,33.8,54,30.21,10.0,Calm,Calm,-,N/A,,Clear,0,2013-12-28 22:50:00
3:10 PM,48.2,32.0,54,30.21,10.0,Calm,Calm,-,N/A,,Clear,0,2013-12-28 23:10:00
3:30 PM,48.2,35.6,62,30.21,10.0,Calm,Calm,-,N/A,,Clear,0,2013-12-28 23:30:00
3:50 PM,42.8,35.6,76,30.21,10.0,Calm,Calm,-,N/A,,Clear,0,2013-12-28 23:50:00
4:10 PM,39.2,33.8,81,30.21,10.0,Calm,Calm,-,N/A,,Clear,0,2013-12-29 00:10:00
4:30 PM,39.2,32.0,75,30.22,9.0,Calm,Calm,-,N/A,,Clear,0,2013-12-29 00:30:00
4:50 PM,39.2,32.0,75,30.22,10.0,Calm,Calm,-,N/A,,Clear,0,2013-12-29 00:50:00
5:10 PM,37.4,30.2,75,30.23,10.0,Calm,Calm,-,N/A,,Clear,0,2013-12-29 01:10:00
5:30 PM,35.6,30.2,81,30.24,10.0,Calm,Calm,-,N/A,,Clear,0,2013-12-29 01:30:00
5:50 PM,35.6,28.4,75,30.25,10.0,Calm,Calm,-,N/A,,Clear,0,2013-12-29 01:50:00
6:10 PM,35.6,28.4,75,30.26,10.0,South,4.6,-,N/A,,Clear,190,2013-12-29 02:10:00
6:30 PM,33.8,28.4,81,30.26,10.0,South,3.5,-,N/A,,Clear,170,2013-12-29 02:30:00
6:50 PM,32.0,26.6,80,30.26,10.0,Calm,Calm,-,N/A,,Clear,0,2013-12-29 02:50:00
7:10 PM,32.0,26.6,80,30.27,10.0,SSW,4.6,-,N/A,,Clear,200,2013-12-29 03:10:00
7:30 PM,32.0,26.6,80,30.27,9.0,SW,3.5,-,N/A,,Clear,220,2013-12-29 03:30:00
7:50 PM,32.0,24.8,75,30.28,10.0,Calm,Calm,-,N/A,,Clear,0,2013-12-29 03:50:00
8:10 PM,32.0,24.8,75,30.28,10.0,Calm,Calm,-,N/A,,Clear,0,2013-12-29 04:10:00
8:30 PM,32.0,24.8,75,30.28,10.0,SSW,3.5,-,N/A,,Clear,210,2013-12-29 04:30:00
8:50 PM,32.0,24.8,75,30.29,10.0,Calm,Calm,-,N/A,,Clear,0,2013-12-29 04:50:00
9:10 PM,32.0,23.0,69,30.30,10.0,Calm,Calm,-,N/A,,Clear,0,2013-12-29 05:10:00
9:30 PM,32.0,23.0,69,30.29,10.0,West,3.5,-,N/A,,Clear,260,2013-12-29 05:30:00
9:50 PM,30.2,23.0,75,30.30,10.0,Calm,Calm,-,N/A,,Clear,0,2013-12-29 05:50:00
10:10 PM,30.2,23.0,75,30.30,10.0,Calm,Calm,-,N/A,,Clear,0,2013-12-29 06:10:00
10:30 PM,28.4,23.0,80,30.31,10.0,Calm,Calm,-,N/A,,Clear,0,2013-12-29 06:30:00
10:50 PM,28.4,23.0,80,30.31,10.0,West,3.5,-,N/A,,Clear,260,2013-12-29 06:50:00
11:10 PM,28.4,23.0,80,30.31,10.0,Calm,Calm,-,N/A,,Clear,0,2013-12-29 07:10:00
11:30 PM,28.4,23.0,80,30.30,10.0,West,3.5,-,N/A,,Clear,260,2013-12-29 07:30:00
11:50 PM,28.4,21.2,74,30.30,10.0,Calm,Calm,-,N/A,,Clear,0,2013-12-29 07:50:00